Location: Chino
(34.0122°N, 117.6889°W)
Time: 13:05:03
(UTC+00:00)

BREEZE-M DEB (TANK) - Pass Details

Date: 13 February 2026
Orbit: 275 x 12049 km, 49.4° (Epoch: 11 March)

Event Time Altitude Azimuth Distance (km) Brightness Sun altitude
Exits shadow 13:22:16 - 193° (SSW) 1,598 4.6 -16.1°
Reaches altitude 10° 13:23:04 10° 183° (S) 1,275 4.2 -15.9°
Maximum altitude 13:25:14 26° 121° (ESE) 947 4.3 -15.5°
Drops below altitude 10° 13:29:21 10° 63° (ENE) 2,527 6.6 -14.6°
Sets 13:34:03 0° 54° (NE) 4,689 7.8 -13.7°
